Location: Ariel
(45.9570°N, 122.5700°W)
Time: 02:21:49
(UTC-07:00)

Tiros 1 - Pass Details

Date: 24 July 2019
Orbit: 630 x 664 km, 48.4° (Epoch: 21 August)

Event Time Altitude Azimuth Distance (km) Brightness Sun altitude
Rises 16:43:10 0° 288° (WNW) 2,999 11.2 40.5°
Reaches altitude 10° 16:45:32 10° 288° (WNW) 2,085 10.7 40.1°
Maximum altitude 16:50:21 79° 203° (SSW) 679 8.1 39.3°
Drops below altitude 10° 16:55:08 10° 117° (ESE) 2,069 9.5 38.5°
Sets 16:57:28 0° 116° (ESE) 2,975 10.2 38.1°
